Kingman, AZ

6:02 AM MST on December 17, 2017 (GMT -0700)
Kingman

Weather History for KIGM - April, 2014

Change the Weather History Date:

Monday, April 14, 2014

  Actual Average Record
Temperature  
Mean Temperature 58 °F 58 °F  
Max Temperature 75 °F 73 °F 90 °F (2002)
Min Temperature 41 °F 43 °F 24 °F (1972)
Degree Days  
Heating Degree Days 7 7  
Month to date heating degree days 100 128  
Since 1 July heating degree days 2728 2959  
Cooling Degree Days 0 1  
Month to date cooling degree days 15 7  
Year to date cooling degree days 15 10  
Growing Degree Days 8 (Base 50)    
Moisture  
Dew Point 2 °F    
Average Humidity 15    
Maximum Humidity 25    
Minimum Humidity 4    
Precipitation  
Precipitation 0.00 in 0.02 in 1.40 in (1976)
Month to date precipitation T 0.24  
Year to date precipitation 0.55 3.16  
Sea Level Pressure  
Sea Level Pressure 30.01 in    
Wind  
Wind Speed 11 mph (NNE)    
Max Wind Speed 22 mph    
Max Gust Speed 29 mph    
Visibility 10 miles    
Events      
T = Trace of Precipitation, MM = Missing Value Source: NWS Daily Summary

Daily Weather History Graph

Daily Weather History Graph

Search for Another Location

Airport or City:

Trip Planner

Search our weather history database for the weather conditions in past years. The results will help you decide how hot, cold, wet, or windy it might be!

Date:

Astronomy

Apr. 14, 2014 Rise Set
Actual Time 6:04 AM MST 7:07 PM MST
Civil Twilight 5:38 AM MST 7:33 PM MST
Nautical Twilight 5:07 AM MST 8:05 PM MST
Astronomical Twilight 4:35 AM MST 8:37 PM MST
Moon 6:51 PM MST (4/14) 5:37 AM MST (4/14)
Length of Visible Light 13h 55m
Length of Day
13h 03m
Full, 100% of the Moon is Illuminated
Apr 14
Full
Apr 15
Full
Apr 22
Last Quarter
Apr 28
New
May 6
First Quarter

Hourly Weather History & Observations

Time (MST) Temp. Windchill Dew Point Humidity Pressure Visibility Wind Dir Wind Speed Gust Speed Precip Events Conditions
12:51 AM 50.0 °F - 7.0 °F 18% 29.93 in 10.0 mi NE 9.2 mph - N/A   Clear
1:51 AM 48.0 °F - 7.0 °F 19% 29.95 in 10.0 mi North 8.1 mph - N/A   Clear
2:51 AM 48.0 °F - 8.1 °F 20% 29.96 in 10.0 mi North 10.4 mph - N/A   Clear
3:51 AM 43.0 °F 37.7 °F 7.0 °F 23% 29.98 in 10.0 mi NNE 9.2 mph - N/A   Clear
4:51 AM 43.0 °F 37.7 °F 9.0 °F 25% 30.01 in 10.0 mi North 9.2 mph - N/A   Clear
5:51 AM 44.1 °F 38.6 °F 10.0 °F 25% 30.03 in 10.0 mi NE 10.4 mph - N/A   Clear
6:51 AM 48.9 °F - 10.9 °F 22% 30.06 in 10.0 mi NE 13.8 mph - N/A   Clear
8:51 AM 57.0 °F - 12.0 °F 17% 30.08 in 10.0 mi North 12.7 mph - N/A   Clear
9:51 AM 62.1 °F - 1.0 °F 9% 30.09 in 10.0 mi NE 19.6 mph 27.6 mph N/A   Clear
10:51 AM 64.4 °F - -2.2 °F 7% 30.22 in 10.0 mi NNE 16.1 mph 25.3 mph N/A   Clear
11:51 AM 66.9 °F - -4.0 °F 6% 30.06 in 10.0 mi NNE 11.5 mph 24.2 mph N/A   Clear
12:51 PM 70.0 °F - -2.9 °F 5% 30.04 in 10.0 mi North 12.7 mph 19.6 mph N/A   Clear
1:51 PM 73.0 °F - -5.1 °F 4% 30.01 in 10.0 mi NNE 9.2 mph - N/A   Clear
2:51 PM 73.0 °F - -4.0 °F 5% 29.99 in 10.0 mi North 9.2 mph 19.6 mph N/A   Clear
3:51 PM 73.9 °F - -5.1 °F 4% 29.97 in 10.0 mi North 12.7 mph - N/A   Clear
4:51 PM 73.0 °F - -5.1 °F 4% 29.97 in 10.0 mi North 12.7 mph - N/A   Clear
5:51 PM 73.0 °F - -4.0 °F 5% 29.95 in 10.0 mi North 10.4 mph - N/A   Clear
6:51 PM 68.0 °F - -0.9 °F 6% 29.95 in 10.0 mi North 10.4 mph - N/A   Clear
7:51 PM 61.0 °F - -0.0 °F 9% 29.97 in 10.0 mi NE 5.8 mph - N/A   Clear
8:51 PM 55.9 °F - 1.9 °F 11% 29.99 in 10.0 mi East 9.2 mph - N/A   Clear
9:51 PM 52.0 °F - 3.0 °F 14% 30.00 in 10.0 mi ESE 10.4 mph - N/A   Clear
10:51 PM 50.0 °F - 3.2 °F 15% 30.12 in 10.0 mi ESE 10.4 mph - N/A   Clear
11:51 PM 50.0 °F - 3.0 °F 15% 29.99 in 10.0 mi ESE 11.5 mph - N/A   Clear